EW8796 Weather Reports


time (UTC)temp
C
wind
direction
speed
KPH
gust
KPH
rain 1hr
cm
rain 24hr
cm
rain mn
cm
humidity
%
barometer
mb
20260503003017 15 225 9.7 24.1 0.00 0.00 0.00 31 1013.3
20260503000016 16 225 9.7 29.0 0.00 0.00 0.00 28 1013.3
20260502233016 17 270 11.3 29.0 0.00 0.00 0.00 27 1013.6
20260502230017 17 248 11.3 35.4 0.00 0.00 0.00 26 1014.0
20260502223017 17 270 11.3 35.4 0.00 0.00 0.00 27 1014.3
20260502220017 17 270 11.3 35.4 0.00 0.00 0.00 27 1014.6
20260502213017 17 248 11.3 38.6 0.00 0.00 0.00 28 1014.9
20260502210017 17 248 11.3 35.4 0.00 0.00 0.00 27 1015.3
20260502203017 17 270 11.3 32.2 0.00 0.00 0.00 27 1015.6
20260502200017 17 225 9.7 29.0 0.00 0.00 0.00 31 1016.1
20260502193057 17 293 9.7 32.2 0.00 0.00 0.00 27 1016.6
20260502190017 16 270 9.7 27.4 0.00 0.00 0.00 26 1016.9
20260502183017 15 203 9.7 29.0 0.00 0.00 0.00 28 1017.2
20260502163017 13 248 6.4 27.4 0.00 0.00 0.00 30 1018.4
20260502123017 3 0.0 0.0 0.00 0.03 0.00 79 1019.0
20260502113017 -1 0.0 0.0 0.00 0.05 0.00 88 1018.2
20260502110037 -1 0.0 0.0 0.00 0.05 0.00 88 1018.0
20260502103017 -1 0.0 0.0 0.00 0.05 0.00 87 1017.8
20260502070017 0 0.0 4.8 0.00 0.05 0.00 78 1018.0
20260502063016 0 0.0 0.0 0.00 0.05 0.00 77 1018.0
20260502060017 1 0.0 0.0 0.00 0.05 0.00 76 1018.0
20260502053037 1 0.0 1.6 0.00 0.05 0.00 74 1017.9
20260502050109 2 0.0 0.0 0.00 0.05 0.00 70 1017.8
20260502043037 3 0.0 0.0 0.00 0.05 0.05 67 1017.7
20260502040017 4 0.0 6.4 0.00 0.05 0.05 64 1017.6
20260502033037 5 0 1.6 6.4 0.00 0.05 0.05 56 1017.3
20260502030017 6 0 4.8 9.7 0.00 0.05 0.05 53 1017.0
20260502023017 6 0 1.6 9.7 0.00 0.05 0.05 52 1016.6
20260502020017 7 0.0 4.8 0.00 0.05 0.05 50 1016.3
20260502013017 8 0 4.8 12.9 0.00 0.05 0.05 44 1015.9
20260502010017 10 0 9.7 20.9 0.00 0.05 0.05 40 1015.5